Retour au catalogue

SL-16 DEB

ActifLEO
NORAD 26074·DEBRIS·🇷🇺 Russia

Lancé Feb 3, 2000 depuis Baikonur Cosmodrome

Loading…

Prochains Passages (prochaines 24 heures)

TLE

FraisSource: Space-Track

Époque: Sep 13, 2026, 23:25 UTC

1 26074U 00006D   26256.97631312  .00000047  00000-0  86050-4 0  9992
2 26074  70.9619  85.7555 0211647 128.8409 233.1793 13.70146786371003

Suivez SL-16 DEB en temps réel avec AllMySat

Download on the App Store